Alamogordo, NM

1:56 AM MST on November 21, 2017 (GMT -0700)
Alamogordo-White Sands Regional

Weather History for KALM - May, 2013

Change the Weather History Date:

Thursday, May 2, 2013

  Actual Average Record
Temperature  
Mean Temperature 57 °F -  
Max Temperature 68 °F 79 °F 93 °F (1965)
Min Temperature 46 °F 48 °F 32 °F (2011)
Degree Days  
Heating Degree Days 8    
Growing Degree Days 7 (Base 50)    
Moisture  
Dew Point 22 °F    
Average Humidity 29    
Maximum Humidity 50    
Minimum Humidity 13    
Precipitation  
Precipitation 0.00 in - - ()
Sea Level Pressure  
Sea Level Pressure 30.33 in    
Wind  
Wind Speed 11 mph (SW)    
Max Wind Speed 20 mph    
Max Gust Speed 28 mph    
Visibility 6 miles    
Events      
Averages and records for this station are not official NWS values.
T = Trace of Precipitation, MM = Missing Value Source: NWS Daily Summary

Daily Weather History Graph

Daily Weather History Graph

Search for Another Location

Airport or City:

Trip Planner

Search our weather history database for the weather conditions in past years. The results will help you decide how hot, cold, wet, or windy it might be!

Date:

Astronomy

May. 02, 2013 Rise Set
Actual Time 6:15 AM MDT 7:46 PM MDT
Civil Twilight 5:49 AM MDT 8:13 PM MDT
Nautical Twilight 5:17 AM MDT 8:44 PM MDT
Astronomical Twilight 4:44 AM MDT 9:18 PM MDT
Moon 1:40 AM MDT (5/2) 1:01 PM MDT (5/2)
Length of Visible Light 14h 24m
Length of Day
13h 31m
Waning Gibbous, 47% of the Moon is Illuminated
May 2
Waning Gibbous
May 9
New
May 17
First Quarter
May 24
Full
May 31
Last Quarter

Hourly Weather History & Observations

Time (MDT) Temp. Windchill Dew Point Humidity Pressure Visibility Wind Dir Wind Speed Gust Speed Precip Events Conditions
12:15 AM 62.6 °F - 14.0 °F 15% 30.02 in 10.0 mi South 12.7 mph - N/A   Clear
12:35 AM 59.0 °F - 15.8 °F 19% 30.03 in 10.0 mi South 9.2 mph - N/A   Clear
12:55 AM 59.0 °F - 19.4 °F 22% 30.04 in 10.0 mi SSW 10.4 mph - N/A   Clear
1:15 AM 59.0 °F - 24.8 °F 27% 30.07 in 10.0 mi NW 12.7 mph - N/A   Clear
1:35 AM 62.6 °F - 26.6 °F 26% 30.09 in 10.0 mi West 16.1 mph 25.3 mph N/A   Clear
1:55 AM 57.2 °F - 28.4 °F 33% 30.12 in 4.0 mi NNE 10.4 mph - N/A   Haze
2:15 AM 55.4 °F - 26.6 °F 33% 30.13 in 4.0 mi North 3.5 mph - N/A   Haze
2:35 AM 53.6 °F - 26.6 °F 35% 30.13 in 5.0 mi SE 6.9 mph - N/A   Haze
2:55 AM 57.2 °F - 26.6 °F 31% 30.14 in 5.0 mi SSE 13.8 mph 17.3 mph N/A   Haze
3:15 AM 53.6 °F - 28.4 °F 38% 30.16 in 3.0 mi South 16.1 mph 20.7 mph N/A   Haze
3:35 AM 50.0 °F - 28.4 °F 43% 30.17 in 3.0 mi South 18.4 mph - N/A   Haze
3:55 AM 50.0 °F - 28.4 °F 43% 30.19 in 1.8 mi SSW 12.7 mph 24.2 mph N/A   Haze
4:15 AM 50.0 °F - 28.4 °F 43% 30.21 in 1.5 mi South 19.6 mph 26.5 mph N/A   Haze
4:35 AM 50.0 °F - 28.4 °F 43% 30.23 in 1.5 mi SSE 12.7 mph - N/A   Haze
4:55 AM 50.0 °F - 28.4 °F 43% 30.23 in 1.2 mi SE 19.6 mph 23.0 mph N/A   Haze
5:15 AM 48.2 °F - 28.4 °F 46% 30.25 in 1.2 mi SSE 16.1 mph - N/A   Haze
5:35 AM 48.2 °F - 28.4 °F 46% 30.27 in 1.5 mi SSE 13.8 mph 19.6 mph N/A   Haze
5:55 AM 48.2 °F - 28.4 °F 46% 30.29 in 1.8 mi SSE 19.6 mph 27.6 mph N/A   Haze
6:15 AM 48.2 °F - 28.4 °F 46% 30.31 in 2.5 mi SSE 18.4 mph 23.0 mph N/A   Haze
6:35 AM 46.4 °F 40.4 °F 28.4 °F 50% 30.33 in 1.8 mi SSE 13.8 mph 19.6 mph N/A   Haze
6:55 AM 46.4 °F 40.4 °F 28.4 °F 50% 30.34 in 2.0 mi SSE 13.8 mph - N/A   Haze
7:15 AM 46.4 °F 41.5 °F 28.4 °F 50% 30.35 in 2.0 mi SSE 10.4 mph - N/A   Haze
7:35 AM 48.2 °F - 28.4 °F 46% 30.36 in 2.5 mi SSE 13.8 mph - N/A   Haze
7:55 AM 48.2 °F - 28.4 °F 46% 30.37 in 2.5 mi SSE 13.8 mph - N/A   Haze
8:15 AM 48.2 °F - 26.6 °F 43% 30.38 in 2.5 mi SSE 16.1 mph - N/A   Haze
8:35 AM 50.0 °F - 26.6 °F 40% 30.39 in 2.0 mi SSE 12.7 mph - N/A   Haze
8:55 AM 50.0 °F - 26.6 °F 40% 30.41 in 2.5 mi SSE 13.8 mph - N/A   Haze
9:15 AM 51.8 °F - 26.6 °F 38% 30.41 in 3.0 mi SSE 10.4 mph - N/A   Haze
9:35 AM 53.6 °F - 26.6 °F 35% 30.42 in 3.0 mi SSE 8.1 mph - N/A   Haze
9:55 AM 53.6 °F - 26.6 °F 35% 30.43 in 2.5 mi SE 8.1 mph - N/A   Haze
10:15 AM 53.6 °F - 26.6 °F 35% 30.43 in 2.5 mi SSW 8.1 mph - N/A   Haze
10:35 AM 55.4 °F - 26.6 °F 33% 30.44 in 2.5 mi West 4.6 mph - N/A   Haze
10:55 AM 55.4 °F - 26.6 °F 33% 30.44 in 2.5 mi West 6.9 mph - N/A   Haze
11:15 AM 57.2 °F - 26.6 °F 31% 30.44 in 3.0 mi SW 6.9 mph - N/A   Haze
11:35 AM 55.4 °F - 26.6 °F 33% 30.44 in 3.0 mi North 3.5 mph - N/A   Haze
11:55 AM 57.2 °F - 26.6 °F 31% 30.43 in 3.0 mi West 4.6 mph - N/A   Haze
12:15 PM 59.0 °F - 26.6 °F 29% 30.42 in 3.0 mi SW 6.9 mph - N/A   Haze
12:35 PM 59.0 °F - 26.6 °F 29% 30.42 in 3.0 mi North 6.9 mph - N/A   Haze
12:55 PM 60.8 °F - 26.6 °F 27% 30.40 in 3.0 mi WNW 6.9 mph - N/A   Haze
1:15 PM 60.8 °F - 26.6 °F 27% 30.40 in 3.0 mi SSW 5.8 mph - N/A   Haze
1:35 PM 60.8 °F - 26.6 °F 27% 30.39 in 3.0 mi Calm Calm - N/A   Haze
1:55 PM 62.6 °F - 26.6 °F 26% 30.39 in 2.5 mi SE 4.6 mph - N/A   Haze
2:15 PM 64.4 °F - 26.6 °F 24% 30.39 in 4.0 mi SE 6.9 mph - N/A   Haze
2:35 PM 64.4 °F - 24.8 °F 22% 30.38 in 4.0 mi SE 5.8 mph - N/A   Haze
2:55 PM 66.2 °F - 24.8 °F 21% 30.37 in 5.0 mi WSW 9.2 mph - N/A   Haze
3:15 PM 64.4 °F - 23.0 °F 21% 30.37 in 5.0 mi Calm Calm - N/A   Haze
3:35 PM 66.2 °F - 17.6 °F 15% 30.36 in 10.0 mi NW 12.7 mph 23.0 mph N/A   Clear
3:55 PM 68.0 °F - 15.8 °F 13% 30.35 in 9.0 mi West 13.8 mph 23.0 mph N/A   Clear
4:15 PM 66.2 °F - 15.8 °F 14% 30.34 in 10.0 mi NW 17.3 mph 21.9 mph N/A   Clear
4:35 PM 66.2 °F - 14.0 °F 13% 30.34 in 10.0 mi NW 15.0 mph 23.0 mph N/A   Clear
4:55 PM 66.2 °F - 14.0 °F 13% 30.34 in 10.0 mi NW 16.1 mph 24.2 mph N/A   Clear
5:15 PM 66.2 °F - 14.0 °F 13% 30.34 in 10.0 mi NW 16.1 mph 23.0 mph N/A   Clear
5:35 PM 66.2 °F - 14.0 °F 13% 30.34 in 10.0 mi NW 16.1 mph 23.0 mph N/A   Clear
5:55 PM 64.4 °F - 14.0 °F 14% 30.34 in 10.0 mi WNW 18.4 mph 21.9 mph N/A   Clear
6:15 PM 64.4 °F - 14.0 °F 14% 30.34 in 10.0 mi WNW 16.1 mph - N/A   Clear
6:35 PM 64.4 °F - 14.0 °F 14% 30.34 in 10.0 mi WNW 15.0 mph - N/A   Clear
6:55 PM 62.6 °F - 14.0 °F 15% 30.34 in 10.0 mi West 15.0 mph - N/A   Clear
7:15 PM 62.6 °F - 15.8 °F 16% 30.34 in 10.0 mi WNW 12.7 mph - N/A   Clear
7:35 PM 60.8 °F - 15.8 °F 17% 30.34 in 10.0 mi West 9.2 mph - N/A   Clear
7:55 PM 59.0 °F - 15.8 °F 19% 30.35 in 10.0 mi WNW 8.1 mph - N/A   Clear
8:15 PM 57.2 °F - 15.8 °F 20% 30.36 in 10.0 mi ENE 11.5 mph - N/A   Clear
8:35 PM 55.4 °F - 15.8 °F 21% 30.37 in 10.0 mi ENE 12.7 mph - N/A   Clear
8:55 PM 55.4 °F - 15.8 °F 21% 30.38 in 10.0 mi East 4.6 mph - N/A   Clear
9:15 PM 53.6 °F - 15.8 °F 22% 30.39 in 10.0 mi South 13.8 mph - N/A   Clear
9:35 PM 51.8 °F - 14.0 °F 22% 30.40 in 10.0 mi South 10.4 mph - N/A   Clear
9:55 PM 50.0 °F - 14.0 °F 24% 30.41 in 10.0 mi WSW 6.9 mph - N/A   Clear
10:15 PM 50.0 °F - 14.0 °F 24% 30.41 in 10.0 mi West 8.1 mph - N/A   Clear
10:35 PM 48.2 °F - 14.0 °F 25% 30.42 in 10.0 mi NW 8.1 mph - N/A   Clear
10:55 PM 48.2 °F - 14.0 °F 25% 30.42 in 10.0 mi North 6.9 mph - N/A   Clear
11:15 PM 46.4 °F 42.9 °F 14.0 °F 27% 30.42 in 10.0 mi North 6.9 mph - N/A   Clear
11:35 PM 46.4 °F 41.9 °F 14.0 °F 27% 30.42 in 10.0 mi North 9.2 mph - N/A   Clear
11:55 PM 46.4 °F 42.4 °F 14.0 °F 27% 30.43 in 10.0 mi North 8.1 mph - N/A   Clear